Tracking 27382 objects as of 4-Jun-2023
HD Live streaming from Space Station
objects crossing your sky now

ONEWEB-0411

Track ONEWEB-0411 now!
10-day predictions
ONEWEB-0411 is classified as:


NORAD ID: 51623
Int'l Code: 2022-012B
Perigee: 1,227.6 km
Apogee: 1,230.2 km
Inclination: 87.9 °
Period: 109.9 minutes
Semi major axis: 7599 km
RCS: Unknown
Launch date: February 10, 2022
Source: United Kingdom (UK)
Launch site: FRENCH GUIANA (FRGUI)
Your satellite tracking list
Your tracking list is empty




NASA's NSSDC Master Catalog

Two Line Element Set (TLE):
1 51623U 22012B   23155.37937529 -.00000484  00000-0 -14230-2 0  9995
2 51623  87.8796 256.4809 0001714 115.0916 245.0389 13.10371183 64070
Source of the keplerian elements: AFSPC